Dewpoint
55 54 54 51 51 52 51 52 52 53 52 51 51 51 51 53 55 56 56 55 55 56 58 58 59 61 60 61 62 60 59 57 54 53 54 58 60 60 60 60 60 60 57
48 49 50 49 49 50 50 50 50 49 48 47 47 47 46 47 51 50 50 51 52 52 54 55 55 57 57 59 59 59 60 60 59 58 58 59 60 61 61 61 59 57 57
45 45 47 48 48 48 48 48 47 47 46 45 45 44 44 44 45 47 46 46 48 49 51 51 52 53 53 52 53 52 53 54 56 55 56 54 55 56 57 58 59 60 58
44 45 46 47 47 46 46 46 45 44 43 43 42 41 41 41 41 42 44 43 45 45 48 49 49 49 50 51 51 52 51 49 48 47 46 45 46 51 51 51 50 51 51
43 43 44 45 44 43 43 42 42 41 41 41 41 41 41 41 38 40 41 42 43 44 45 44 45 45 46 48 46 48 50 48 45 43 42 42 42 43 46 45 46 47 50
42 41 41 41 40 40 41 40 41 41 40 40 40 40 41 39 39 39 41 41 43 43 43 43 44 44 44 45 45 46 46 45 45 42 41 41 46 45 45 45 45 44 43
39 38 37 37 37 38 39 39 39 40 41 41 41 41 41 41 40 40 40 41 42 42 42 42 42 41 43 43 44 44 44 45 46 45 44 45 46 46 48 48 49 47 46
36 35 35 36 37 37 38 39 40 39 40 39 40 41 41 41 40 39 40 41 41 41 41 41 41 42 42 42 42 42 42 43 44 43 45 45 47 48 49 49 49 50 48
34 35 36 36 36 37 38 39 39 39 40 40 40 42 42 43 41 40 40 42 42 42 41 41 40 39 39 41 40 40 41 41 42 44 43 42 41 41 42 43 42 44 43
34 35 36 36 37 38 39 39 39 40 39 39 40 41 42 43 41 40 40 41 41 41 42 42 41 41 39 39 39 38 38 38 41 41 42 42 43 44 44 45 43 43 42
34 35 36 37 38 39 39 39 39 40 40 40 41 42 42 42 43 40 40 41 41 41 41 40 40 40 39 39 39 39 39 41 41 41 40 41 42 43 43 45 46 45 43
35 36 38 38 37 37 39 40 41 40 40 41 41 41 41 43 42 41 40 40 41 41 42 42 43 40 39 39 39 39 39 39 39 38 37 38 40 41 42 43 46 47 49
36 37 37 38 38 38 40 39 38 41 41 41 40 40 41 40 41 41 40 39 40 41 42 43 41 40 40 40 40 40 40 40 39 39 38 39 39 41 43 44 45 46 48
37 38 38 37 37 38 38 39 40 41 41 39 39 40 40 40 40 39 39 41 41 43 43 44 43 41 41 41 41 42 41 41 40 39 39 40 41 40 41 41 42 44 46
37 37 36 36 37 38 39 41 41 41 40 39 39 39 39 38 37 37 37 38 39 40 40 42 43 44 44 45 45 46 46 44 41 41 40 41 42 43 41 43 44 44 45
36 35 36 36 36 38 38 38 38 38 38 37 36 38 37 36 36 36 37 37 37 38 41 43 43 44 45 46 46 47 49 49 46 43 41 41 41 43 44 45 45 45 45
36 36 36 35 37 37 36 36 37 38 38 37 36 36 36 35 36 36 37 37 39 41 43 43 42 42 42 44 45 46 47 51 50 47 43 43 43 44 43 44 44 45 45
36 35 38 36 37 35 35 36 36 37 37 36 36 36 35 35 36 36 36 39 43 41 42 41 40 41 40 41 42 43 46 50 50 47 46 45 45 45 45 44 45 45 46
36 37 38 36 35 36 36 36 36 37 36 35 36 35 34 35 36 36 37 40 40 40 40 40 41 40 40 40 41 41 43 45 50 50 49 48 48 47 46 46 47 41 42
37 34 34 34 34 35 35 34 34 35 35 34 34 34 33 34 36 36 37 38 39 39 39 40 40 40 40 39 39 39 40 41 45 50 50 50 50 49 50 48 49 49 49
36 35 32 34 33 33 33 33 33 34 33 33 34 34 32 34 34 34 36 36 38 38 38 38 38 38 38 38 38 38 38 39 41 44 50 51 51 50 50 51 51 51 51
35 34 33 32 32 32 32 32 32 32 32 32 33 33 32 34 34 34 35 35 37 38 38 38 38 36 36 36 36 36 36 36 38 41 45 54 53 53 52 51 52 52 51
34 34 32 31 31 31 31 31 30 30 30 31 32 33 32 33 33 33 33 34 35 37 37 36 36 35 35 35 36 36 34 34 37 42 46 54 55 55 55 54 53 51 50
33 32 31 30 30 30 29 29 29 29 29 29 30 32 32 32 32 32 33 34 34 35 35 35 36 34 34 33 33 32 32 33 37 39 47 51 54 53 54 52 50 48 48
32 31 31 30 29 29 29 28 28 30 29 28 29 29 30 30 31 32 32 31 31 32 33 33 33 33 34 33 31 32 31 31 34 33 43 46 49 50 51 50 50 49 49
31 31 30 29 28 28 28 28 27 28 27 27 28 30 29 30 30 31 31 30 30 31 30 30 31 32 31 30 30 30 30 31 32 32 39 42 42 43 44 48 50 49 49
Lifted_Index
1 0 1 1 2 2 3 3 4 5 6 6 7 7 7 7 7 7 6 5 4 4 4 3 2 1 1 0 -0 -0 0 0 1 1 1 0 -0 -0 -1 -1 -2 -1 -1
2 2 2 3 3 4 5 6 7 7 8 8 9 9 9 9 9 9 9 8 7 7 6 5 5 4 3 2 1 1 1 1 1 1 1 1 0 -0 -1 -1 -1 -1 -1
4 4 4 5 6 7 8 9 9 10 10 11 11 11 12 12 12 12 12 12 11 10 9 8 8 7 6 5 5 4 4 3 3 3 3 3 2 2 1 0 -0 -1 -1
5 5 6 7 8 9 10 10 11 11 12 12 13 13 13 13 13 13 13 13 13 12 11 11 10 10 9 9 8 7 6 6 6 5 5 5 5 4 4 3 2 1 1
6 6 7 8 9 10 11 12 12 12 13 13 12 12 12 12 12 12 12 12 12 11 11 11 11 11 11 10 10 9 9 8 8 8 7 7 7 6 5 5 4 4 3
7 8 9 10 10 11 12 12 12 12 11 11 10 10 10 11 11 11 11 11 11 10 10 10 10 10 10 10 10 10 10 10 9 8 8 8 7 7 6 6 6 5 5
8 9 10 10 11 12 12 11 11 10 10 10 10 10 11 11 12 12 12 12 11 11 11 10 10 10 10 10 10 10 10 10 9 9 8 8 8 8 7 7 7 7 6
8 9 10 11 12 11 11 10 10 10 11 11 12 12 12 13 13 13 13 13 13 12 12 12 12 11 11 11 10 9 9 9 9 10 9 9 9 8 8 8 8 7 7
10 11 12 12 11 10 10 10 11 12 13 13 13 13 13 13 13 13 12 12 12 12 13 12 12 12 11 11 10 9 9 9 10 10 10 10 10 9 9 9 8 8 8
11 11 11 10 10 10 11 12 13 14 14 14 14 14 13 13 12 11 11 11 11 11 11 11 11 10 10 9 9 9 9 10 10 11 11 11 11 10 9 9 9 8 8
11 11 10 10 11 11 12 13 14 14 14 14 14 13 13 12 11 10 10 10 10 10 10 9 9 8 8 8 8 8 9 9 10 10 11 11 10 10 10 10 10 9 9
10 10 10 11 12 12 13 14 14 14 14 14 13 13 12 11 11 10 10 9 9 9 9 8 8 7 6 6 6 6 7 7 8 8 9 9 9 10 10 9 9 9 9
9 10 10 11 12 13 13 14 14 14 14 13 12 12 11 11 11 10 10 9 9 8 8 7 6 6 5 5 4 4 5 5 6 6 7 7 8 8 8 8 8 9 9
9 10 11 12 13 13 14 14 14 14 13 13 12 11 11 10 10 9 9 8 8 7 6 5 5 4 4 3 3 3 4 4 4 4 5 6 7 7 7 7 7 8 8
10 10 12 13 13 14 14 14 14 14 13 13 12 11 10 9 9 8 8 7 6 5 5 4 4 3 3 3 3 3 3 3 4 4 4 5 6 6 6 6 6 7 7
11 11 12 13 13 13 13 13 13 14 13 12 11 10 9 8 8 7 6 5 4 4 3 3 3 2 2 3 3 3 4 4 4 4 4 5 5 5 5 5 6 6 6
11 12 13 13 13 13 13 13 13 12 12 11 10 9 8 7 7 6 5 4 3 3 3 2 2 2 2 3 3 4 4 4 4 4 4 4 5 5 5 5 5 6 6
12 12 13 13 12 12 13 12 12 11 10 9 9 8 7 7 6 5 4 4 3 3 2 2 2 2 2 2 3 3 4 4 4 4 4 4 4 5 5 5 5 6 6
12 12 12 12 12 12 12 12 11 10 9 8 8 7 7 6 6 5 4 4 3 3 3 3 2 2 2 2 2 3 3 4 4 4 4 4 4 4 5 5 5 5 5
12 12 12 12 12 12 12 11 10 9 8 7 7 7 7 6 5 5 4 4 3 3 3 3 3 3 2 2 2 2 2 3 3 3 4 4 4 4 4 4 4 4 4
12 12 12 12 12 12 12 11 10 9 8 7 7 7 7 6 5 5 5 4 4 4 4 4 4 3 3 3 2 2 2 2 2 2 3 3 3 3 3 3 3 3 3
12 12 12 12 12 12 11 10 9 9 8 8 8 7 7 6 6 6 5 5 5 5 5 4 4 4 3 3 3 3 2 2 2 2 1 2 2 2 2 2 2 2 2
13 12 12 13 12 12 11 11 10 9 8 8 8 8 7 7 7 6 6 6 6 6 6 5 5 4 4 4 4 4 4 3 3 2 1 1 1 1 1 1 2 1 1
13 13 12 13 12 12 12 11 10 10 9 9 9 9 8 8 8 8 8 8 7 7 7 7 7 6 6 6 5 5 5 4 4 3 2 2 1 1 2 2 2 2 2
13 13 13 13 13 13 12 12 11 11 11 10 10 10 11 11 10 10 11 11 10 10 10 10 10 10 9 9 8 7 6 5 5 4 4 3 3 2 2 3 3 3 3
13 13 13 13 13 13 13 12 12 12 12 12 12 12 13 13 13 13 13 13 13 13 13 13 13 13 12 11 10 8 7 6 5 5 5 4 4 3 3 3 3 3 4